Regional Weather Roundup
Issued by NWS

Home | Current Version | Previous Version | Text Only | Print | Product List | Glossary On
Versions: 1 2 3 4 5 6 7 8 9 10 11 12 13 14 15 16 17 18 19 20 21 22 23 24 25 26 27
000
ASUS45 KBOI 102110
RWRID

IDAHO REGIONAL WEATHER ROUNDUP
NATIONAL WEATHER SERVICE BOISE ID
200 PM MST SAT DEC 10 2016

NOTE: "FAIR" INDICATES FEW OR NO CLOUDS BELOW 12000 FEET
WITH NO SIGNIFICANT WEATHER AND/OR OBSTRUCTIONS TO VISIBILITY

IDZ012-014-102200-
SOUTHWEST IDAHO


CITY           SKY/WX    TMP DP  RH WIND       PRES   REMARKS
BOISE          FOG       34  34 100 NW6       29.87F VSB<1/4 WCI  29
CALDWELL       FOG       34  32  93 NW6       29.89F VSB 3/4 WCI  29
MOUNTAIN HOME  FOG       35  35 100 N5        29.85F VSB<1/4 WCI  31
$$

IDZ016-017-102200-
SOUTHCENTRAL IDAHO


CITY           SKY/WX    TMP DP  RH WIND       PRES   REMARKS
BURLEY         CLOUDY    38  37  97 SW9       29.84S WCI  31
JEROME         CLOUDY    38  38 100 SW8       29.84F WCI  32
TWIN FALLS     CLOUDY    39  37  92 SW6       29.85S WCI  35
$$

IDZ019>023-102200-
SOUTHEAST IDAHO


CITY           SKY/WX    TMP DP  RH WIND       PRES   REMARKS
IDAHO FALLS    CLOUDY    35  33  92 SW29G37   29.74S FOG     WCI  22
POCATELLO      CLOUDY    38  35  89 SW16      29.82S WCI  29
REXBURG        CLOUDY    34  34 100 SW22G33   29.74R FOG     WCI  22
$$

IDZ006-010-011-018-031-032-102200-
CENTRAL IDAHO MOUNTAINS


CITY           SKY/WX    TMP DP  RH WIND       PRES   REMARKS
MCCALL         PTSUNNY   34  27  75 W5        29.79S WCI  30
HAILEY         CLOUDY    36  32  87 E5        29.78R WCI  32
STANLEY          N/A     31  26  82 S9        29.76S WCI  23
SALMON         CLOUDY    25  19  80 CALM      29.77R
CHALLIS        CLOUDY    39  24  55 VRB3      29.70R
$$

IDZ002-004-006-007-026-102200-
NORTHERN IDAHO


CITY           SKY/WX    TMP DP  RH WIND       PRES   REMARKS
LEWISTON       CLOUDY    29  22  75 CALM      29.96S
LOWELL         NOT AVBL
COEUR D`ALENE  CLOUDY    24  19  81 W6        29.91S WCI  17
MULLAN PASS    FOG       17  15  92 NW7       29.68R VSB 3/4 WCI   8
$$




USA.gov is the U.S. government's official web portal to all federal, state and local government web resources and services.